Location: Holcomb Observatory and Planetarium
(39.8415°N, 86.1714°W)
Time: 17:09:46
(UTC-04:00)

ISS - Visible Passes

Search period start: 27 July 2016 00:00
Search period end: 06 August 2016 00:00
Orbit: 401 x 404 km, 51.6° (Epoch: 27 July)

Date Brightness Start Highest point End Pass type
(mag) Time Alt. Az. Time Alt. Az. Time Alt. Az.
27 Jul 0.0 00:42:58 10° NW 00:44:47 14° NNW 00:46:36 10° NNE visible
27 Jul 0.3 02:21:23 10° NNW 02:22:21 11° N 02:23:18 10° NNE visible
27 Jul -0.9 03:56:57 10° NNW 03:59:41 24° NNE 04:02:25 10° E visible
27 Jul -3.1 05:33:06 10° WNW 05:36:15 45° SW 05:39:21 10° SSE visible
27 Jul -3.5 22:11:35 10° SW 22:14:49 80° SE 22:18:05 10° NE visible
27 Jul -0.4 23:49:13 10° WNW 23:51:35 18° NNW 23:53:58 10° NNE visible
28 Jul 0.3 01:28:21 10° NNW 01:29:03 10° N 01:29:45 10° NNE visible
28 Jul -0.2 03:08:08 13° NE 03:08:08 13° NE 03:08:47 10° ENE visible
28 Jul -3.4 04:41:16 20° NW 04:43:21 87° NNE 04:46:37 10° SE visible
28 Jul -1.0 22:55:38 10° W 22:58:27 26° NNW 23:01:16 10° NNE visible
29 Jul 0.2 00:34:41 10° NNW 00:35:46 11° N 00:36:49 10° NNE visible
29 Jul -2.0 22:02:16 10° WSW 22:05:23 43° NNW 22:08:32 10° NE visible
29 Jul 0.0 23:40:50 10° NW 23:42:29 13° NNW 23:44:08 10° NNE visible
30 Jul 0.3 01:18:57 10° NNW 01:19:20 11° N 01:19:20 11° N visible
30 Jul -0.3 22:47:02 10° WNW 22:49:15 17° NNW 22:51:29 10° NNE visible
31 Jul 0.1 00:26:02 10° NNW 00:26:45 10° N 00:27:27 10° NNE visible
31 Jul -0.8 21:53:23 10° W 21:56:05 24° NNW 21:58:48 10° NNE visible
31 Jul 0.0 23:32:31 10° NNW 23:33:26 11° N 23:34:22 10° NNE visible
01 Aug 0.3 01:09:08 10° NNW 01:09:14 10° NNW 01:09:14 10° NNW visible
01 Aug -0.2 22:38:39 10° NW 22:40:09 12° NNW 22:41:38 10° NNE visible
02 Aug -0.1 00:16:28 10° NNW 00:17:43 12° N 00:17:56 12° NNE visible
02 Aug -0.4 21:44:49 10° WNW 21:46:54 16° NNW 21:48:58 10° NNE visible
02 Aug -0.1 23:23:39 10° N 23:24:25 11° N 23:25:11 10° NNE visible
03 Aug -0.1 22:30:17 10° NNW 22:31:06 11° N 22:31:55 10° N visible
04 Aug -0.3 00:06:37 10° NNW 00:07:58 14° N 00:07:58 14° N visible
04 Aug -0.3 21:36:27 10° NW 21:37:47 12° N 21:39:06 10° NNE visible
04 Aug -0.4 23:13:56 10° NNW 23:15:21 12° N 23:16:43 10° NE visible
05 Aug -0.3 22:21:10 10° N 22:22:03 11° N 22:22:56 10° NNE visible
